| time (UTC) | temp C | wind direction | speed KPH | gust KPH | rain 1hr cm | rain 24hr cm | rain mn cm | humidity % | barometer mb |
| 20260506034005 | 20 | 306 | 4.8 | 12.9 | 0.00 | 0.00 | 0.00 | 77 | 1009.0 |
| 20260506033503 | 20 | 5 | 1.6 | 16.1 | 0.00 | 0.00 | 0.00 | 77 | 1008.9 |
| 20260506033016 | 21 | 360 | 3.2 | 16.1 | 0.00 | 0.00 | 0.00 | 77 | 1008.9 |
| 20260506032503 | 21 | 333 | 4.8 | 16.1 | 0.00 | 0.00 | 0.00 | 77 | 1008.6 |
| 20260506032009 | 21 | 355 | 1.6 | 16.1 | 0.00 | 0.00 | 0.00 | 76 | 1008.5 |
| 20260506031537 | 21 | 328 | 4.8 | 17.7 | 0.00 | 0.00 | 0.00 | 76 | 1008.6 |
| 20260506031008 | 21 | 345 | 6.4 | 17.7 | 0.00 | 0.00 | 0.00 | 76 | 1008.8 |
| 20260506030506 | 21 | 329 | 9.7 | 17.7 | 0.00 | 0.00 | 0.00 | 76 | 1008.6 |
| 20260506030024 | 21 | 301 | 9.7 | 17.7 | 0.00 | 0.00 | 0.00 | 75 | 1008.5 |
| 20260506025504 | 21 | 331 | 3.2 | 19.3 | 0.00 | 0.00 | 0.00 | 76 | 1008.3 |
| 20260506025003 | 22 | 360 | 8.0 | 19.3 | 0.00 | 0.00 | 0.00 | 75 | 1008.1 |
| 20260506024516 | 22 | 340 | 4.8 | 16.1 | 0.00 | 0.00 | 0.00 | 75 | 1008.0 |
| 20260506024006 | 22 | 326 | 6.4 | 20.9 | 0.00 | 0.00 | 0.00 | 75 | 1007.7 |
| 20260506023506 | 22 | 360 | 9.7 | 20.9 | 0.00 | 0.00 | 0.00 | 75 | 1007.5 |
| 20260506023012 | 23 | 331 | 6.4 | 16.1 | 0.00 | 0.00 | 0.00 | 74 | 1007.4 |
| 20260506022506 | 23 | 360 | 3.2 | 12.9 | 0.00 | 0.00 | 0.00 | 74 | 1007.1 |
| 20260506022006 | 23 | 360 | 4.8 | 8.0 | 0.00 | 0.00 | 0.00 | 73 | 1007.0 |
| 20260506021517 | 23 | 305 | 3.2 | 8.0 | 0.00 | 0.00 | 0.00 | 73 | 1006.8 |
| 20260506021007 | 23 | 337 | 0.0 | 12.9 | 0.00 | 0.00 | 0.00 | 73 | 1006.7 |
| 20260506020511 | 23 | 9 | 3.2 | 12.9 | 0.00 | 0.00 | 0.00 | 72 | 1006.8 |
| 20260506020021 | 23 | 323 | 0.0 | 16.1 | 0.00 | 0.00 | 0.00 | 72 | 1006.8 |
| 20260506015505 | 23 | 333 | 3.2 | 16.1 | 0.00 | 0.00 | 0.00 | 72 | 1006.8 |
| 20260506015007 | 23 | 305 | 4.8 | 12.9 | 0.00 | 0.00 | 0.00 | 72 | 1006.9 |
| 20260506014511 | 23 | 325 | 3.2 | 14.5 | 0.00 | 0.00 | 0.00 | 72 | 1006.6 |
| 20260506014002 | 23 | 317 | 3.2 | 14.5 | 0.00 | 0.00 | 0.00 | 72 | 1006.4 |
| 20260506013507 | 23 | 326 | 4.8 | 12.9 | 0.00 | 0.00 | 0.00 | 71 | 1006.4 |
| 20260506013009 | 23 | 331 | 3.2 | 12.9 | 0.00 | 0.00 | 0.00 | 71 | 1006.4 |
| 20260506012504 | 23 | 360 | 3.2 | 12.9 | 0.00 | 0.00 | 0.00 | 70 | 1006.8 |
| 20260506012004 | 24 | 300 | 3.2 | 17.7 | 0.00 | 0.00 | 0.00 | 70 | 1006.5 |
| 20260506011517 | 24 | 360 | 6.4 | 17.7 | 0.00 | 0.00 | 0.00 | 70 | 1006.1 |
| 20260506011003 | 24 | 360 | 6.4 | 17.7 | 0.00 | 0.00 | 0.00 | 70 | 1005.9 |
| 20260506010506 | 25 | 26 | 6.4 | 17.7 | 0.00 | 0.00 | 0.00 | 70 | 1006.0 |
| 20260506010018 | 25 | 36 | 8.0 | 17.7 | 0.00 | 0.00 | 0.00 | 69 | 1005.8 |
| 20260506005506 | 26 | 320 | 4.8 | 14.5 | 0.00 | 0.00 | 0.00 | 68 | 1005.9 |
| 20260506005009 | 26 | 9 | 4.8 | 11.3 | 0.00 | 0.00 | 0.00 | 67 | 1006.0 |
| 20260506004527 | 26 | 336 | 0.0 | 6.4 | 0.00 | 0.00 | 0.00 | 67 | 1005.9 |
| 20260506004013 | 26 | 338 | 1.6 | 9.7 | 0.00 | 0.00 | 0.00 | 66 | 1005.8 |
| 20260506003510 | 27 | 334 | 1.6 | 9.7 | 0.00 | 0.00 | 0.00 | 65 | 1005.6 |
| 20260506003012 | 27 | 355 | 0.0 | 9.7 | 0.00 | 0.00 | 0.00 | 65 | 1005.6 |
| 20260506002504 | 27 | 324 | 0.0 | 12.9 | 0.00 | 0.00 | 0.00 | 65 | 1005.8 |
| 20260506002004 | 27 | 271 | 0.0 | 12.9 | 0.00 | 0.00 | 0.00 | 66 | 1005.7 |
| 20260506001514 | 28 | 360 | 1.6 | 9.7 | 0.00 | 0.00 | 0.00 | 73 | 1005.5 |
| 20260506001004 | 28 | 231 | 0.0 | 9.7 | 0.00 | 0.00 | 0.00 | 73 | 1005.2 |
| 20260506000504 | 28 | 207 | 1.6 | 14.5 | 0.00 | 0.00 | 0.00 | 73 | 1005.3 |
| 20260506000021 | 28 | 168 | 0.0 | 14.5 | 0.00 | 0.00 | 0.00 | 73 | 1005.1 |
| 20260505235503 | 28 | 262 | 1.6 | 14.5 | 0.00 | 0.00 | 0.00 | 72 | 1004.6 |
| 20260505235007 | 28 | 188 | 1.6 | 16.1 | 0.00 | 0.00 | 0.00 | 72 | 1004.6 |
| 20260505234530 | 28 | 167 | 4.8 | 16.1 | 0.00 | 0.00 | 0.00 | 72 | 1004.3 |
| 20260505234007 | 29 | 155 | 3.2 | 16.1 | 0.00 | 0.00 | 0.00 | 71 | 1004.3 |
| 20260505233508 | 29 | 200 | 4.8 | 16.1 | 0.00 | 0.00 | 0.00 | 71 | 1004.5 |
| 20260505233026 | 29 | 165 | 6.4 | 16.1 | 0.00 | 0.00 | 0.00 | 70 | 1004.5 |
| 20260505232512 | 29 | 360 | 4.8 | 17.7 | 0.00 | 0.00 | 0.00 | 70 | 1004.4 |
| 20260505232010 | 30 | 360 | 6.4 | 17.7 | 0.00 | 0.00 | 0.00 | 69 | 1004.3 |
| 20260505231510 | 30 | 360 | 4.8 | 14.5 | 0.00 | 0.00 | 0.00 | 69 | 1004.4 |
| 20260505231003 | 30 | 170 | 3.2 | 16.1 | 0.00 | 0.00 | 0.00 | 69 | 1004.2 |
| 20260505230503 | 30 | 205 | 3.2 | 17.7 | 0.00 | 0.00 | 0.00 | 68 | 1004.3 |
| 20260505230022 | 30 | 198 | 1.6 | 17.7 | 0.00 | 0.00 | 0.00 | 68 | 1004.2 |
| 20260505225507 | 30 | 186 | 1.6 | 9.7 | 0.00 | 0.00 | 0.00 | 69 | 1004.2 |
| 20260505225004 | 30 | 169 | 3.2 | 11.3 | 0.00 | 0.00 | 0.00 | 68 | 1004.2 |
| 20260505224520 | 30 | 138 | 1.6 | 14.5 | 0.00 | 0.00 | 0.00 | 68 | 1004.2 |
| 20260505224004 | 30 | 198 | 4.8 | 17.7 | 0.00 | 0.00 | 0.00 | 68 | 1004.2 |
| 20260505223507 | 30 | 198 | 6.4 | 17.7 | 0.00 | 0.00 | 0.00 | 67 | 1004.0 |
| 20260505223024 | 31 | 360 | 6.4 | 20.9 | 0.00 | 0.00 | 0.00 | 66 | 1003.8 |
| 20260505222508 | 31 | 139 | 1.6 | 20.9 | 0.00 | 0.00 | 0.00 | 65 | 1003.8 |
| 20260505222008 | 32 | 156 | 3.2 | 14.5 | 0.00 | 0.00 | 0.00 | 64 | 1003.9 |
| 20260505221525 | 32 | 223 | 0.0 | 12.9 | 0.00 | 0.00 | 0.00 | 62 | 1003.9 |
| 20260505221011 | 32 | 233 | 0.0 | 12.9 | 0.00 | 0.00 | 0.00 | 62 | 1003.9 |
| 20260505220512 | 32 | 263 | 1.6 | 12.9 | 0.00 | 0.00 | 0.00 | 62 | 1003.9 |
| 20260505220011 | 32 | 134 | 3.2 | 12.9 | 0.00 | 0.00 | 0.00 | 62 | 1004.0 |
| 20260505215504 | 32 | 250 | 1.6 | 12.9 | 0.00 | 0.00 | 0.00 | 62 | 1003.9 |
| 20260505215004 | 32 | 123 | 3.2 | 12.9 | 0.00 | 0.00 | 0.00 | 61 | 1003.9 |
| 20260505214518 | 32 | 150 | 3.2 | 16.1 | 0.00 | 0.00 | 0.00 | 61 | 1004.0 |
| 20260505214007 | 32 | 360 | 0.0 | 16.1 | 0.00 | 0.00 | 0.00 | 60 | 1004.2 |
| 20260505213504 | 32 | 199 | 3.2 | 12.9 | 0.00 | 0.00 | 0.00 | 59 | 1004.2 |
| 20260505213021 | 33 | 88 | 1.6 | 9.7 | 0.00 | 0.00 | 0.00 | 58 | 1004.2 |
| 20260505212508 | 33 | 196 | 1.6 | 9.7 | 0.00 | 0.00 | 0.00 | 59 | 1004.3 |
| 20260505212010 | 33 | 331 | 0.0 | 20.9 | 0.00 | 0.00 | 0.00 | 59 | 1004.3 |
| 20260505211523 | 33 | 190 | 3.2 | 20.9 | 0.00 | 0.00 | 0.00 | 58 | 1004.3 |
| 20260505211010 | 33 | 155 | 3.2 | 14.5 | 0.00 | 0.00 | 0.00 | 59 | 1004.2 |
| 20260505210508 | 32 | 178 | 1.6 | 16.1 | 0.00 | 0.00 | 0.00 | 59 | 1004.3 |
| 20260505210029 | 32 | 223 | 4.8 | 20.9 | 0.00 | 0.00 | 0.00 | 59 | 1004.4 |
| 20260505205512 | 32 | 215 | 9.7 | 20.9 | 0.00 | 0.00 | 0.00 | 59 | 1004.4 |
| 20260505205011 | 32 | 258 | 0.0 | 12.9 | 0.00 | 0.00 | 0.00 | 60 | 1004.6 |
| 20260505204513 | 32 | 352 | 1.6 | 16.1 | 0.00 | 0.00 | 0.00 | 60 | 1004.8 |
| 20260505204004 | 31 | 188 | 1.6 | 16.1 | 0.00 | 0.00 | 0.00 | 61 | 1004.9 |
| 20260505203508 | 31 | 234 | 1.6 | 14.5 | 0.00 | 0.00 | 0.00 | 62 | 1004.9 |
| 20260505203017 | 31 | 12 | 1.6 | 20.9 | 0.00 | 0.00 | 0.00 | 61 | 1004.8 |
| 20260505202507 | 31 | 256 | 1.6 | 20.9 | 0.00 | 0.00 | 0.00 | 62 | 1005.0 |
| 20260505202008 | 31 | 94 | 1.6 | 14.5 | 0.00 | 0.00 | 0.00 | 62 | 1005.0 |
| 20260505201522 | 31 | 360 | 0.0 | 19.3 | 0.00 | 0.00 | 0.00 | 62 | 1005.0 |
| 20260505201010 | 31 | 102 | 1.6 | 19.3 | 0.00 | 0.00 | 0.00 | 62 | 1005.1 |
| 20260505200516 | 31 | 360 | 0.0 | 19.3 | 0.00 | 0.00 | 0.00 | 62 | 1005.1 |
| 20260505200036 | 31 | 319 | 1.6 | 9.7 | 0.00 | 0.00 | 0.00 | 62 | 1005.1 |
| 20260505195504 | 31 | 93 | 1.6 | 14.5 | 0.00 | 0.00 | 0.00 | 63 | 1005.0 |
| 20260505195002 | 31 | 114 | 1.6 | 14.5 | 0.00 | 0.00 | 0.00 | 64 | 1005.1 |
| 20260505194509 | 31 | 224 | 1.6 | 14.5 | 0.00 | 0.00 | 0.00 | 64 | 1005.1 |
| 20260505194006 | 31 | 232 | 4.8 | 22.5 | 0.00 | 0.00 | 0.00 | 64 | 1005.2 |
| 20260505193504 | 31 | 232 | 6.4 | 22.5 | 0.00 | 0.00 | 0.00 | 64 | 1005.2 |
| 20260505193028 | 31 | 194 | 1.6 | 16.1 | 0.00 | 0.00 | 0.00 | 65 | 1005.2 |
| 20260505192514 | 30 | 241 | 1.6 | 14.5 | 0.00 | 0.00 | 0.00 | 66 | 1005.2 |
| 20260505192006 | 30 | 182 | 1.6 | 14.5 | 0.00 | 0.00 | 0.00 | 66 | 1005.2 |
| 20260505191522 | 30 | 360 | 0.0 | 9.7 | 0.00 | 0.00 | 0.00 | 67 | 1005.2 |
| 20260505191012 | 30 | 240 | 1.6 | 8.0 | 0.00 | 0.00 | 0.00 | 67 | 1005.3 |
| 20260505190506 | 29 | 190 | 1.6 | 12.9 | 0.00 | 0.00 | 0.00 | 67 | 1005.3 |
| 20260505190033 | 29 | 200 | 1.6 | 14.5 | 0.00 | 0.00 | 0.00 | 67 | 1005.4 |
| 20260505185507 | 29 | 109 | 3.2 | 16.1 | 0.00 | 0.00 | 0.00 | 67 | 1005.5 |
| 20260505185008 | 29 | 11 | 4.8 | 16.1 | 0.00 | 0.00 | 0.00 | 66 | 1005.5 |
| 20260505184507 | 29 | 256 | 1.6 | 17.7 | 0.00 | 0.00 | 0.00 | 67 | 1005.5 |
| 20260505184005 | 29 | 360 | 3.2 | 17.7 | 0.00 | 0.00 | 0.00 | 66 | 1005.5 |
| 20260505183504 | 29 | 257 | 1.6 | 19.3 | 0.00 | 0.00 | 0.00 | 66 | 1005.5 |
| 20260505183014 | 29 | 175 | 3.2 | 19.3 | 0.00 | 0.00 | 0.00 | 67 | 1005.4 |
| 20260505182503 | 29 | 226 | 3.2 | 12.9 | 0.00 | 0.00 | 0.00 | 66 | 1005.5 |
| 20260505182007 | 30 | 360 | 3.2 | 12.9 | 0.00 | 0.00 | 0.00 | 65 | 1005.5 |
| 20260505181518 | 30 | 207 | 1.6 | 12.9 | 0.00 | 0.00 | 0.00 | 66 | 1005.6 |
| 20260505181004 | 29 | 185 | 0.0 | 22.5 | 0.00 | 0.00 | 0.00 | 66 | 1005.5 |
| 20260505180505 | 29 | 227 | 4.8 | 22.5 | 0.00 | 0.00 | 0.00 | 65 | 1005.5 |
| 20260505180020 | 29 | 187 | 3.2 | 22.5 | 0.00 | 0.00 | 0.00 | 66 | 1005.4 |
| 20260505175507 | 29 | 360 | 4.8 | 11.3 | 0.00 | 0.00 | 0.00 | 66 | 1005.4 |
| 20260505175006 | 29 | 239 | 1.6 | 12.9 | 0.00 | 0.00 | 0.00 | 66 | 1005.5 |
| 20260505174535 | 29 | 77 | 3.2 | 19.3 | 0.00 | 0.00 | 0.00 | 67 | 1005.6 |
| 20260505174009 | 29 | 360 | 3.2 | 19.3 | 0.00 | 0.00 | 0.00 | 67 | 1005.6 |
| 20260505173508 | 29 | 360 | 3.2 | 27.4 | 0.00 | 0.00 | 0.00 | 68 | 1005.5 |
| 20260505173010 | 28 | 181 | 4.8 | 27.4 | 0.00 | 0.00 | 0.00 | 67 | 1005.6 |
| 20260505172504 | 28 | 286 | 4.8 | 16.1 | 0.00 | 0.00 | 0.00 | 68 | 1005.5 |
| 20260505172012 | 28 | 208 | 4.8 | 17.7 | 0.00 | 0.00 | 0.00 | 68 | 1005.6 |
| 20260505171518 | 28 | 261 | 4.8 | 19.3 | 0.00 | 0.00 | 0.00 | 68 | 1005.7 |
| 20260505171004 | 28 | 360 | 3.2 | 19.3 | 0.00 | 0.00 | 0.00 | 68 | 1005.7 |
| 20260505170505 | 28 | 119 | 1.6 | 17.7 | 0.00 | 0.00 | 0.00 | 70 | 1005.8 |
| 20260505170020 | 28 | 182 | 4.8 | 17.7 | 0.00 | 0.00 | 0.00 | 70 | 1005.7 |
| 20260505165504 | 27 | 257 | 3.2 | 16.1 | 0.00 | 0.00 | 0.00 | 71 | 1005.6 |
| 20260505165011 | 27 | 155 | 3.2 | 16.1 | 0.00 | 0.00 | 0.00 | 70 | 1005.6 |
| 20260505164522 | 27 | 217 | 3.2 | 14.5 | 0.00 | 0.00 | 0.00 | 70 | 1005.6 |
| 20260505164007 | 27 | 263 | 3.2 | 19.3 | 0.00 | 0.00 | 0.00 | 70 | 1005.7 |
| 20260505163509 | 27 | 207 | 6.4 | 19.3 | 0.00 | 0.00 | 0.00 | 71 | 1005.6 |
| 20260505163025 | 27 | 249 | 3.2 | 19.3 | 0.00 | 0.00 | 0.00 | 71 | 1005.6 |
| 20260505162507 | 27 | 168 | 4.8 | 19.3 | 0.00 | 0.00 | 0.00 | 71 | 1005.5 |
| 20260505162010 | 27 | 194 | 4.8 | 17.7 | 0.00 | 0.00 | 0.00 | 72 | 1005.4 |
| 20260505161510 | 27 | 178 | 1.6 | 16.1 | 0.00 | 0.00 | 0.00 | 73 | 1005.4 |
| 20260505161005 | 27 | 211 | 3.2 | 16.1 | 0.00 | 0.00 | 0.00 | 73 | 1005.3 |
| 20260505160507 | 26 | 166 | 0.0 | 12.9 | 0.00 | 0.00 | 0.00 | 74 | 1005.3 |
| 20260505153024 | 25 | 236 | 6.4 | 20.9 | 0.00 | 0.00 | 0.00 | 77 | 1005.6 |
| 20260505152511 | 25 | 211 | 4.8 | 20.9 | 0.00 | 0.00 | 0.00 | 78 | 1005.6 |
| 20260505152017 | 25 | 276 | 3.2 | 16.1 | 0.00 | 0.00 | 0.00 | 78 | 1005.6 |
| 20260505151526 | 25 | 153 | 3.2 | 16.1 | 0.00 | 0.00 | 0.00 | 79 | 1005.7 |
| 20260505151012 | 24 | 259 | 4.8 | 16.1 | 0.00 | 0.00 | 0.00 | 79 | 1005.6 |
| 20260505150511 | 24 | 360 | 4.8 | 16.1 | 0.00 | 0.00 | 0.00 | 79 | 1005.6 |
| 20260505140507 | 22 | 209 | 3.2 | 19.3 | 0.00 | 0.00 | 0.00 | 83 | 1005.6 |
| 20260505125008 | 22 | 341 | 4.8 | 16.1 | 0.00 | 0.00 | 0.00 | 85 | 1005.3 |
| 20260505124525 | 22 | 225 | 4.8 | 14.5 | 0.00 | 0.00 | 0.00 | 85 | 1005.3 |
| 20260505124011 | 21 | 202 | 1.6 | 14.5 | 0.00 | 0.00 | 0.00 | 85 | 1005.0 |
| 20260505123507 | 21 | 151 | 3.2 | 22.5 | 0.00 | 0.00 | 0.00 | 86 | 1004.9 |
| 20260505123017 | 21 | 192 | 3.2 | 22.5 | 0.00 | 0.00 | 0.00 | 86 | 1004.9 |
| 20260505122504 | 21 | 148 | 1.6 | 29.0 | 0.00 | 0.00 | 0.00 | 86 | 1004.9 |
| 20260505122007 | 21 | 196 | 6.4 | 29.0 | 0.00 | 0.00 | 0.00 | 86 | 1004.9 |
| 20260505121519 | 21 | 222 | 1.6 | 14.5 | 0.00 | 0.00 | 0.00 | 86 | 1004.9 |
| 20260505121008 | 21 | 262 | 1.6 | 14.5 | 0.00 | 0.00 | 0.00 | 86 | 1004.9 |
| 20260505120513 | 21 | 191 | 3.2 | 16.1 | 0.00 | 0.00 | 0.00 | 86 | 1004.7 |
| 20260505120023 | 21 | 172 | 1.6 | 16.1 | 0.00 | 0.00 | 0.00 | 86 | 1004.8 |
| 20260505115508 | 21 | 186 | 1.6 | 12.9 | 0.00 | 0.00 | 0.00 | 86 | 1004.8 |
| 20260505115014 | 21 | 148 | 3.2 | 16.1 | 0.00 | 0.00 | 0.00 | 86 | 1004.8 |
| 20260505114528 | 21 | 160 | 3.2 | 17.7 | 0.00 | 0.00 | 0.00 | 86 | 1004.8 |
| 20260505114013 | 21 | 240 | 0.0 | 17.7 | 0.00 | 0.00 | 0.00 | 85 | 1004.5 |
| 20260505113507 | 21 | 220 | 1.6 | 17.7 | 0.00 | 0.00 | 0.00 | 85 | 1004.5 |
| 20260505113027 | 21 | 191 | 6.4 | 17.7 | 0.00 | 0.00 | 0.00 | 85 | 1004.4 |
| 20260505112512 | 21 | 204 | 3.2 | 22.5 | 0.00 | 0.00 | 0.00 | 85 | 1004.4 |
| 20260505112007 | 21 | 26 | 1.6 | 22.5 | 0.00 | 0.00 | 0.00 | 85 | 1004.5 |
| 20260505111522 | 21 | 360 | 3.2 | 17.7 | 0.00 | 0.00 | 0.00 | 85 | 1004.4 |
| 20260505111007 | 21 | 232 | 3.2 | 19.3 | 0.00 | 0.00 | 0.00 | 85 | 1004.3 |
| 20260505110507 | 21 | 231 | 6.4 | 19.3 | 0.00 | 0.00 | 0.00 | 85 | 1004.3 |
| 20260505102010 | 21 | 236 | 6.4 | 16.1 | 0.00 | 0.00 | 0.00 | 85 | 1004.7 |
| 20260505101527 | 21 | 167 | 3.2 | 17.7 | 0.00 | 0.00 | 0.00 | 85 | 1004.7 |
| 20260505101010 | 21 | 211 | 4.8 | 17.7 | 0.00 | 0.00 | 0.00 | 85 | 1004.7 |
| 20260505100504 | 21 | 209 | 6.4 | 17.7 | 0.00 | 0.00 | 0.00 | 85 | 1004.7 |
| 20260505100026 | 21 | 151 | 4.8 | 14.5 | 0.00 | 0.00 | 0.00 | 85 | 1004.6 |
| 20260505095507 | 21 | 231 | 3.2 | 16.1 | 0.00 | 0.00 | 0.00 | 85 | 1004.8 |
| 20260505095007 | 21 | 186 | 4.8 | 16.1 | 0.00 | 0.00 | 0.00 | 85 | 1004.9 |
| 20260505094503 | 21 | 238 | 3.2 | 14.5 | 0.00 | 0.00 | 0.00 | 85 | 1005.0 |
| 20260505094002 | 21 | 195 | 3.2 | 16.1 | 0.00 | 0.00 | 0.00 | 85 | 1005.0 |
| 20260505093502 | 21 | 229 | 6.4 | 16.1 | 0.00 | 0.00 | 0.00 | 85 | 1005.0 |
| 20260505093008 | 21 | 9 | 4.8 | 19.3 | 0.00 | 0.00 | 0.00 | 85 | 1005.0 |
| 20260505092502 | 21 | 202 | 3.2 | 19.3 | 0.00 | 0.00 | 0.00 | 85 | 1005.1 |
| 20260505092002 | 21 | 360 | 3.2 | 16.1 | 0.00 | 0.00 | 0.00 | 85 | 1005.1 |
| 20260505091510 | 21 | 175 | 3.2 | 16.1 | 0.00 | 0.00 | 0.00 | 85 | 1005.1 |
| 20260505091004 | 21 | 360 | 1.6 | 16.1 | 0.00 | 0.00 | 0.00 | 85 | 1005.2 |
| 20260505090508 | 21 | 171 | 1.6 | 22.5 | 0.00 | 0.00 | 0.00 | 85 | 1005.0 |
| 20260505090016 | 21 | 207 | 6.4 | 22.5 | 0.00 | 0.00 | 0.00 | 85 | 1005.1 |
| 20260505085507 | 21 | 196 | 4.8 | 22.5 | 0.00 | 0.00 | 0.00 | 85 | 1005.1 |
| 20260505085010 | 21 | 231 | 6.4 | 17.7 | 0.00 | 0.00 | 0.00 | 85 | 1005.0 |
| 20260505084522 | 21 | 360 | 0.0 | 17.7 | 0.00 | 0.00 | 0.00 | 85 | 1005.0 |
| 20260505084010 | 21 | 228 | 4.8 | 22.5 | 0.00 | 0.00 | 0.00 | 85 | 1005.0 |
| 20260505083508 | 21 | 194 | 4.8 | 22.5 | 0.00 | 0.00 | 0.00 | 85 | 1005.1 |
| 20260505083007 | 21 | 142 | 4.8 | 20.9 | 0.00 | 0.00 | 0.00 | 85 | 1005.1 |
| 20260505082504 | 21 | 173 | 3.2 | 17.7 | 0.00 | 0.00 | 0.00 | 85 | 1005.1 |
| 20260505082002 | 21 | 212 | 4.8 | 20.9 | 0.00 | 0.00 | 0.00 | 85 | 1005.1 |
| 20260505081509 | 21 | 213 | 4.8 | 20.9 | 0.00 | 0.00 | 0.00 | 85 | 1005.1 |
| 20260505081005 | 21 | 9 | 4.8 | 20.9 | 0.00 | 0.00 | 0.00 | 84 | 1005.1 |
| 20260505080506 | 21 | 190 | 6.4 | 16.1 | 0.00 | 0.00 | 0.00 | 84 | 1005.1 |
| 20260505080014 | 21 | 200 | 4.8 | 16.1 | 0.00 | 0.00 | 0.00 | 84 | 1005.2 |
| 20260505075506 | 21 | 248 | 1.6 | 22.5 | 0.00 | 0.00 | 0.00 | 84 | 1005.3 |
| 20260505075009 | 21 | 182 | 3.2 | 22.5 | 0.00 | 0.00 | 0.00 | 84 | 1005.4 |
| 20260505074518 | 21 | 153 | 3.2 | 16.1 | 0.00 | 0.00 | 0.00 | 84 | 1005.5 |
| 20260505074006 | 21 | 190 | 1.6 | 16.1 | 0.00 | 0.00 | 0.00 | 84 | 1005.6 |
| 20260505073507 | 21 | 188 | 3.2 | 12.9 | 0.00 | 0.00 | 0.00 | 84 | 1005.6 |
| 20260505073029 | 21 | 170 | 3.2 | 16.1 | 0.00 | 0.00 | 0.00 | 83 | 1005.8 |
| 20260505072508 | 21 | 203 | 1.6 | 16.1 | 0.00 | 0.00 | 0.00 | 83 | 1005.9 |
| 20260505072005 | 21 | 150 | 3.2 | 14.5 | 0.00 | 0.00 | 0.00 | 83 | 1005.9 |
| 20260505071513 | 22 | 176 | 4.8 | 16.1 | 0.00 | 0.00 | 0.00 | 83 | 1005.9 |
| 20260505071004 | 21 | 159 | 1.6 | 17.7 | 0.00 | 0.00 | 0.00 | 83 | 1006.0 |
| 20260505070503 | 22 | 181 | 4.8 | 17.7 | 0.00 | 0.00 | 0.00 | 83 | 1006.1 |
| 20260505070012 | 22 | 196 | 6.4 | 17.7 | 0.00 | 0.00 | 0.00 | 83 | 1006.2 |
| 20260505065503 | 22 | 198 | 3.2 | 14.5 | 0.00 | 0.00 | 0.00 | 83 | 1006.3 |
| 20260505065002 | 21 | 174 | 3.2 | 14.5 | 0.00 | 0.00 | 0.00 | 82 | 1006.4 |
| 20260505064521 | 22 | 182 | 1.6 | 12.9 | 0.00 | 0.00 | 0.00 | 82 | 1006.5 |
| 20260505064003 | 21 | 167 | 3.2 | 16.1 | 0.00 | 0.00 | 0.00 | 82 | 1006.4 |
| 20260505063504 | 21 | 360 | 3.2 | 16.1 | 0.00 | 0.00 | 0.00 | 82 | 1006.4 |
| 20260505063020 | 21 | 210 | 4.8 | 19.3 | 0.00 | 0.00 | 0.00 | 82 | 1006.3 |
| 20260505062509 | 21 | 191 | 3.2 | 19.3 | 0.00 | 0.00 | 0.00 | 82 | 1006.4 |
| 20260505062010 | 21 | 202 | 4.8 | 17.7 | 0.00 | 0.00 | 0.00 | 82 | 1006.5 |
| 20260505061523 | 21 | 199 | 3.2 | 17.7 | 0.00 | 0.00 | 0.00 | 81 | 1006.5 |
| 20260505061017 | 22 | 176 | 6.4 | 16.1 | 0.00 | 0.00 | 0.00 | 81 | 1006.5 |
| 20260505060510 | 22 | 176 | 3.2 | 17.7 | 0.00 | 0.00 | 0.00 | 81 | 1006.5 |
| 20260505060008 | 22 | 166 | 4.8 | 17.7 | 0.00 | 0.00 | 0.00 | 81 | 1006.6 |
| 20260505055504 | 22 | 178 | 4.8 | 16.1 | 0.00 | 0.00 | 0.00 | 81 | 1006.6 |
| 20260505055004 | 22 | 360 | 6.4 | 16.1 | 0.00 | 0.00 | 0.00 | 81 | 1006.7 |
| 20260505054514 | 22 | 360 | 6.4 | 17.7 | 0.00 | 0.00 | 0.00 | 80 | 1006.6 |
| 20260505054008 | 22 | 225 | 4.8 | 17.7 | 0.00 | 0.00 | 0.00 | 80 | 1006.7 |
| 20260505053506 | 22 | 171 | 4.8 | 17.7 | 0.00 | 0.00 | 0.00 | 80 | 1006.8 |
| 20260505053023 | 22 | 171 | 3.2 | 17.7 | 0.00 | 0.00 | 0.00 | 80 | 1006.8 |
| 20260505052511 | 22 | 140 | 4.8 | 17.7 | 0.00 | 0.00 | 0.00 | 79 | 1006.8 |
| 20260505052006 | 22 | 198 | 3.2 | 17.7 | 0.00 | 0.00 | 0.00 | 79 | 1006.8 |
| 20260505051533 | 22 | 360 | 4.8 | 17.7 | 0.00 | 0.00 | 0.00 | 79 | 1006.8 |
| 20260505051011 | 22 | 144 | 6.4 | 17.7 | 0.00 | 0.00 | 0.00 | 78 | 1006.9 |
| 20260505050509 | 22 | 360 | 4.8 | 16.1 | 0.00 | 0.00 | 0.00 | 78 | 1006.9 |
| 20260505041521 | 22 | 208 | 4.8 | 16.1 | 0.00 | 0.00 | 0.00 | 76 | 1007.1 |
| 20260505041006 | 22 | 195 | 4.8 | 20.9 | 0.00 | 0.00 | 0.00 | 76 | 1007.0 |
| 20260505040506 | 22 | 169 | 4.8 | 22.5 | 0.00 | 0.00 | 0.00 | 75 | 1007.2 |
| 20260505040036 | 22 | 202 | 6.4 | 22.5 | 0.00 | 0.00 | 0.00 | 75 | 1007.1 |
| 20260505035507 | 22 | 182 | 4.8 | 16.1 | 0.00 | 0.00 | 0.00 | 75 | 1007.0 |
| 20260505035007 | 22 | 155 | 8.0 | 16.1 | 0.00 | 0.00 | 0.00 | 75 | 1006.9 |
| 20260505034524 | 23 | 215 | 3.2 | 16.1 | 0.00 | 0.00 | 0.00 | 74 | 1007.0 |